Home > Time Zones > World Clock > Weather > Italy > Turin > Past weeks

Flag for Italy Weather past 2 weeks in Turin, Italy

Now
61 °F

Scattered clouds.


Feels Like: 61 °F
Forecast: 53 / 66 °F
Wind: 2 mph from Northwest

Location: Torino / Bric Della Croce

Current Time: Oct 21, 2014 at 2:11:28 PM

Latest Report: Oct 21, 2014 at 12:55 PM


Visibility: 4 mi

Pressure: 29.95 "Hg

Humidity: 100%

Dew point: 61 °F

Location of TurinLocation

Historic Weather in Turin — Graph

°F

Turin temperature yesterday

Maximum temperature yesterday: 66 °F (at 3:55 PM)
Minimum temperature yesterday: 61 °F (at 8:55 AM)
Average temperature yesterday: 63 °F

Past Weeks' High & Low Weather Summary

 TemperatureHumidityPressure
High68 °F (Oct 18, 2:55 PM)100% (Oct 6, 11:55 AM)30.30 "Hg (Oct 6, 11:55 AM)
Low54 °F (Oct 6, 11:55 AM)73% (Oct 15, 3:55 PM)29.83 "Hg (Oct 13, 6:55 PM)
Average59 °F95%30.04 "Hg
* Reported Oct 6 11:55 AM — Oct 21 11:55 AM, Turin, Weather by CustomWeather, © 2014

Note: Actual official high and low records may vary slightly from our data, if they occured in-between our weather recording intervals... More about our weather records

Advertising

Turin weather history for previous 24 hours

 ConditionsComfort  
Time TempWeatherWind HumidityBarometerVisibility
11:55 AM
Oct 21
61 °FPassing clouds.No wind100%29.98 "Hg4 mi
10:55 AM59 °FPassing clouds.No wind100%29.98 "Hg4 mi
9:55 AM59 °FScattered clouds.No wind100%29.98 "Hg4 mi
8:55 AM59 °FFog.2 mph100%29.95 "Hg0 mi
7:55 AM59 °FFog.3 mph100%29.95 "Hg1 mi
6:55 AM61 °FPassing clouds.No wind100%29.95 "Hg5 mi
5:55 AM61 °FPassing clouds.5 mph100%29.98 "Hg5 mi
4:55 AM61 °FFog.5 mph100%29.98 "Hg3 mi
3:55 AM61 °FFog.6 mph100%30.01 "Hg3 mi
2:55 AM61 °FFog.No wind100%30.01 "Hg3 mi
1:55 AM61 °FFog.3 mph100%30.01 "Hg3 mi
12:55 AM61 °FPassing clouds.2 mph100%30.04 "Hg4 mi
11:55 PM
Oct 20
63 °FPassing clouds.No wind100%30.04 "Hg4 mi
10:55 PM63 °FPassing clouds.No wind100%30.07 "Hg4 mi
9:55 PM63 °FPassing clouds.5 mph100%30.09 "Hg4 mi
8:55 PM64 °FPassing clouds.3 mph100%30.09 "Hg5 mi
7:55 PM64 °FPassing clouds.3 mph100%30.09 "Hg5 mi
6:55 PM64 °FScattered clouds.2 mph100%30.09 "Hg5 mi
5:55 PM64 °FScattered clouds.No wind94%30.09 "Hg5 mi
4:55 PM64 °FScattered clouds.No wind94%30.12 "Hg5 mi
3:55 PM66 °FScattered clouds.No wind83%30.21 "Hg4 mi
2:55 PM64 °FScattered clouds.No wind88%30.21 "Hg4 mi
Weather by CustomWeather, © 2014

See weather overviewHow to use our weather pages